owner,sensor,date,latitude,longitude,sea_surface_height_above_sea_level,qcFlag 
COMPS,ioos:station:USF.COMPS:SHP:1,2012-08-01T03:00:00Z,30.0600,-84.2910,1.453,1111122 
COMPS,ioos:station:USF.COMPS:SHP:1,2012-08-01T03:06:00Z,30.0600,-84.2910,1.453,1111122 
COMPS,ioos:station:USF.COMPS:SHP:1,2012-08-01T03:12:00Z,30.0600,-84.2910,1.453,1111122 
COMPS,ioos:station:USF.COMPS:SHP:1,2012-08-01T03:18:00Z,30.0600,-84.2910,1.453,1111122 
COMPS,ioos:station:USF.COMPS:SHP:1,2012-08-01T03:24:00Z,30.0600,-84.2910,1.453,1111122 
COMPS,ioos:station:USF.COMPS:SHP:1,2012-08-01T03:30:00Z,30.0600,-84.2910,1.453,1111122 
COMPS,ioos:station:USF.COMPS:SHP:1,2012-08-01T03:36:00Z,30.0600,-84.2910,1.453,1111122 
COMPS,ioos:station:USF.COMPS:SHP:1,2012-08-01T03:42:00Z,30.0600,-84.2910,1.453,1111122 
COMPS,ioos:station:USF.COMPS:SHP:1,2012-08-01T03:48:00Z,30.0600,-84.2910,1.453,1111122 
COMPS,ioos:station:USF.COMPS:SHP:1,2012-08-01T03:54:00Z,30.0600,-84.2910,1.453,1111122 
COMPS,ioos:station:USF.COMPS:SHP:1,2012-08-01T04:00:00Z,30.0600,-84.2910,1.453,1111122 
COMPS,ioos:station:USF.COMPS:SHP:1,2012-08-01T04:06:00Z,30.0600,-84.2910,1.453,1111122 
COMPS,ioos:station:USF.COMPS:SHP:1,2012-08-01T04:12:00Z,30.0600,-84.2910,1.453,1111122 
COMPS,ioos:station:USF.COMPS:SHP:1,2012-08-01T04:18:00Z,30.0600,-84.2910,1.453,1111122 
COMPS,ioos:station:USF.COMPS:SHP:1,2012-08-01T04:24:00Z,30.0600,-84.2910,1.453,1111122 
COMPS,ioos:station:USF.COMPS:SHP:1,2012-08-01T04:30:00Z,30.0600,-84.2910,1.453,1111122 
COMPS,ioos:station:USF.COMPS:SHP:1,2012-08-01T04:36:00Z,30.0600,-84.2910,1.454,1111122 
COMPS,ioos:station:USF.COMPS:SHP:1,2012-08-01T04:42:00Z,30.0600,-84.2910,1.454,1111122 
COMPS,ioos:station:USF.COMPS:SHP:1,2012-08-01T04:48:00Z,30.0600,-84.2910,1.454,1111122 
COMPS,ioos:station:USF.COMPS:SHP:1,2012-08-01T04:54:00Z,30.0600,-84.2910,1.454,1111122 
COMPS,ioos:station:USF.COMPS:SHP:1,2012-08-01T05:00:00Z,30.0600,-84.2910,1.454,1111122 
COMPS,ioos:station:USF.COMPS:SHP:1,2012-08-01T05:06:00Z,30.0600,-84.2910,1.454,1111122 
COMPS,ioos:station:USF.COMPS:SHP:1,2012-08-01T05:12:00Z,30.0600,-84.2910,1.454,1111122 
COMPS,ioos:station:USF.COMPS:SHP:1,2012-08-01T05:18:00Z,30.0600,-84.2910,1.454,1111122 
COMPS,ioos:station:USF.COMPS:SHP:1,2012-08-01T05:24:00Z,30.0600,-84.2910,1.454,1111122 
COMPS,ioos:station:USF.COMPS:SHP:1,2012-08-01T05:30:00Z,30.0600,-84.2910,1.454,1111122 
COMPS,ioos:station:USF.COMPS:SHP:1,2012-08-01T05:36:00Z,30.0600,-84.2910,1.454,1111122 
COMPS,ioos:station:USF.COMPS:SHP:1,2012-08-01T05:42:00Z,30.0600,-84.2910,1.454,1111122 
COMPS,ioos:station:USF.COMPS:SHP:1,2012-08-01T05:48:00Z,30.0600,-84.2910,1.454,1111122 
COMPS,ioos:station:USF.COMPS:SHP:1,2012-08-01T05:54:00Z,30.0600,-84.2910,1.454,1111122 
COMPS,ioos:station:USF.COMPS:SHP:1,2012-08-01T06:00:00Z,30.0600,-84.2910,1.454,1111122 
COMPS,ioos:station:USF.COMPS:SHP:1,2012-08-01T06:06:00Z,30.0600,-84.2910,1.454,1111122 
COMPS,ioos:station:USF.COMPS:SHP:1,2012-08-01T06:12:00Z,30.0600,-84.2910,1.454,1111122 
COMPS,ioos:station:USF.COMPS:SHP:1,2012-08-01T06:18:00Z,30.0600,-84.2910,1.454,1111122 
COMPS,ioos:station:USF.COMPS:SHP:1,2012-08-01T06:24:00Z,30.0600,-84.2910,1.454,1111122 
COMPS,ioos:station:USF.COMPS:SHP:1,2012-08-01T06:30:00Z,30.0600,-84.2910,1.453,1111122 
COMPS,ioos:station:USF.COMPS:SHP:1,2012-08-01T06:36:00Z,30.0600,-84.2910,1.453,1111122 
COMPS,ioos:station:USF.COMPS:SHP:1,2012-08-01T06:42:00Z,30.0600,-84.2910,1.453,1111122 
COMPS,ioos:station:USF.COMPS:SHP:1,2012-08-01T06:48:00Z,30.0600,-84.2910,1.453,1111122 
COMPS,ioos:station:USF.COMPS:SHP:1,2012-08-01T06:54:00Z,30.0600,-84.2910,1.453,1111122 
COMPS,ioos:station:USF.COMPS:SHP:1,2012-08-01T07:00:00Z,30.0600,-84.2910,1.453,1111122 
COMPS,ioos:station:USF.COMPS:SHP:1,2012-08-01T07:06:00Z,30.0600,-84.2910,1.453,1111122 
COMPS,ioos:station:USF.COMPS:SHP:1,2012-08-01T07:12:00Z,30.0600,-84.2910,1.453,1111122 
COMPS,ioos:station:USF.COMPS:SHP:1,2012-08-01T07:18:00Z,30.0600,-84.2910,1.453,1111122 
COMPS,ioos:station:USF.COMPS:SHP:1,2012-08-01T07:24:00Z,30.0600,-84.2910,1.453,1111122 
COMPS,ioos:station:USF.COMPS:SHP:1,2012-08-01T07:30:00Z,30.0600,-84.2910,1.453,1111122 
COMPS,ioos:station:USF.COMPS:SHP:1,2012-08-01T07:36:00Z,30.0600,-84.2910,1.453,1111122 
COMPS,ioos:station:USF.COMPS:SHP:1,2012-08-01T07:42:00Z,30.0600,-84.2910,1.453,1111122 
COMPS,ioos:station:USF.COMPS:SHP:1,2012-08-01T07:48:00Z,30.0600,-84.2910,1.453,1111122 
COMPS,ioos:station:USF.COMPS:SHP:1,2012-08-01T07:54:00Z,30.0600,-84.2910,1.453,1111122 
COMPS,ioos:station:USF.COMPS:SHP:1,2012-08-01T08:00:00Z,30.0600,-84.2910,1.453,1111122 
COMPS,ioos:station:USF.COMPS:SHP:1,2012-08-01T08:06:00Z,30.0600,-84.2910,1.453,1111122 
COMPS,ioos:station:USF.COMPS:SHP:1,2012-08-01T08:12:00Z,30.0600,-84.2910,1.453,1111122 
COMPS,ioos:station:USF.COMPS:SHP:1,2012-08-01T08:18:00Z,30.0600,-84.2910,1.453,1111122 
COMPS,ioos:station:USF.COMPS:SHP:1,2012-08-01T08:24:00Z,30.0600,-84.2910,1.453,1111122 
COMPS,ioos:station:USF.COMPS:SHP:1,2012-08-01T08:30:00Z,30.0600,-84.2910,1.453,1111122 
COMPS,ioos:station:USF.COMPS:SHP:1,2012-08-01T08:36:00Z,30.0600,-84.2910,1.453,1111122 
COMPS,ioos:station:USF.COMPS:SHP:1,2012-08-01T08:42:00Z,30.0600,-84.2910,1.453,1111122 
COMPS,ioos:station:USF.COMPS:SHP:1,2012-08-01T08:48:00Z,30.0600,-84.2910,1.453,1111122 
COMPS,ioos:station:USF.COMPS:SHP:1,2012-08-01T08:54:00Z,30.0600,-84.2910,1.453,1111122 
COMPS,ioos:station:USF.COMPS:SHP:1,2012-08-01T09:00:00Z,30.0600,-84.2910,1.453,1111122 
COMPS,ioos:station:USF.COMPS:SHP:1,2012-08-01T09:06:00Z,30.0600,-84.2910,1.453,1111122 
COMPS,ioos:station:USF.COMPS:SHP:1,2012-08-01T09:12:00Z,30.0600,-84.2910,1.453,1111122 
COMPS,ioos:station:USF.COMPS:SHP:1,2012-08-01T09:18:00Z,30.0600,-84.2910,1.453,1111122 
COMPS,ioos:station:USF.COMPS:SHP:1,2012-08-01T09:24:00Z,30.0600,-84.2910,1.453,1111122 
COMPS,ioos:station:USF.COMPS:SHP:1,2012-08-01T09:30:00Z,30.0600,-84.2910,1.453,1111122 
COMPS,ioos:station:USF.COMPS:SHP:1,2012-08-01T09:36:00Z,30.0600,-84.2910,1.453,1111122 
COMPS,ioos:station:USF.COMPS:SHP:1,2012-08-01T09:42:00Z,30.0600,-84.2910,1.453,1111122 
COMPS,ioos:station:USF.COMPS:SHP:1,2012-08-01T09:48:00Z,30.0600,-84.2910,1.453,1111122 
COMPS,ioos:station:USF.COMPS:SHP:1,2012-08-01T09:54:00Z,30.0600,-84.2910,1.453,1111122 
COMPS,ioos:station:USF.COMPS:SHP:1,2012-08-01T10:00:00Z,30.0600,-84.2910,1.453,1111122 
COMPS,ioos:station:USF.COMPS:SHP:1,2012-08-01T10:06:00Z,30.0600,-84.2910,1.453,1111122 
COMPS,ioos:station:USF.COMPS:SHP:1,2012-08-01T10:12:00Z,30.0600,-84.2910,1.453,1111122 
COMPS,ioos:station:USF.COMPS:SHP:1,2012-08-01T10:18:00Z,30.0600,-84.2910,1.453,1111122 
COMPS,ioos:station:USF.COMPS:SHP:1,2012-08-01T10:24:00Z,30.0600,-84.2910,1.453,1111122 
COMPS,ioos:station:USF.COMPS:SHP:1,2012-08-01T10:30:00Z,30.0600,-84.2910,1.453,1111122 
COMPS,ioos:station:USF.COMPS:SHP:1,2012-08-01T10:36:00Z,30.0600,-84.2910,1.453,1111122 
COMPS,ioos:station:USF.COMPS:SHP:1,2012-08-01T10:42:00Z,30.0600,-84.2910,1.453,1111122 
COMPS,ioos:station:USF.COMPS:SHP:1,2012-08-01T10:48:00Z,30.0600,-84.2910,1.453,1111122 
COMPS,ioos:station:USF.COMPS:SHP:1,2012-08-01T10:54:00Z,30.0600,-84.2910,1.453,1111122 
COMPS,ioos:station:USF.COMPS:SHP:1,2012-08-01T11:00:00Z,30.0600,-84.2910,1.453,1111122 
COMPS,ioos:station:USF.COMPS:SHP:1,2012-08-01T11:06:00Z,30.0600,-84.2910,1.453,1111122 
COMPS,ioos:station:USF.COMPS:SHP:1,2012-08-01T11:12:00Z,30.0600,-84.2910,1.453,1111122 
COMPS,ioos:station:USF.COMPS:SHP:1,2012-08-01T11:18:00Z,30.0600,-84.2910,1.453,1111122 
COMPS,ioos:station:USF.COMPS:SHP:1,2012-08-01T11:24:00Z,30.0600,-84.2910,1.453,1111122 
COMPS,ioos:station:USF.COMPS:SHP:1,2012-08-01T11:30:00Z,30.0600,-84.2910,1.453,1111122 
COMPS,ioos:station:USF.COMPS:SHP:1,2012-08-01T11:36:00Z,30.0600,-84.2910,1.453,1111122 
COMPS,ioos:station:USF.COMPS:SHP:1,2012-08-01T11:42:00Z,30.0600,-84.2910,1.453,1111122 
COMPS,ioos:station:USF.COMPS:SHP:1,2012-08-01T11:48:00Z,30.0600,-84.2910,1.453,1111122 
COMPS,ioos:station:USF.COMPS:SHP:1,2012-08-01T11:54:00Z,30.0600,-84.2910,1.453,1111122 
COMPS,ioos:station:USF.COMPS:SHP:1,2012-08-01T12:00:00Z,30.0600,-84.2910,1.453,1111122 
COMPS,ioos:station:USF.COMPS:SHP:1,2012-08-01T12:06:00Z,30.0600,-84.2910,1.453,1111122 
COMPS,ioos:station:USF.COMPS:SHP:1,2012-08-01T12:12:00Z,30.0600,-84.2910,1.453,1111122 
COMPS,ioos:station:USF.COMPS:SHP:1,2012-08-01T12:18:00Z,30.0600,-84.2910,1.453,1111122 
COMPS,ioos:station:USF.COMPS:SHP:1,2012-08-01T12:24:00Z,30.0600,-84.2910,1.452,1111122 
COMPS,ioos:station:USF.COMPS:SHP:1,2012-08-01T12:30:00Z,30.0600,-84.2910,1.452,1111122 
COMPS,ioos:station:USF.COMPS:SHP:1,2012-08-01T12:36:00Z,30.0600,-84.2910,1.452,1111122 
COMPS,ioos:station:USF.COMPS:SHP:1,2012-08-01T12:42:00Z,30.0600,-84.2910,1.452,1111122 
COMPS,ioos:station:USF.COMPS:SHP:1,2012-08-01T12:48:00Z,30.0600,-84.2910,1.452,1111122 
COMPS,ioos:station:USF.COMPS:SHP:1,2012-08-01T12:54:00Z,30.0600,-84.2910,1.451,1111122 
COMPS,ioos:station:USF.COMPS:SHP:1,2012-08-01T13:00:00Z,30.0600,-84.2910,1.451,1111122 
COMPS,ioos:station:USF.COMPS:SHP:1,2012-08-01T13:06:00Z,30.0600,-84.2910,1.452,1111122 
COMPS,ioos:station:USF.COMPS:SHP:1,2012-08-01T13:12:00Z,30.0600,-84.2910,1.452,1111122 
COMPS,ioos:station:USF.COMPS:SHP:1,2012-08-01T13:18:00Z,30.0600,-84.2910,1.452,1111122 
COMPS,ioos:station:USF.COMPS:SHP:1,2012-08-01T13:24:00Z,30.0600,-84.2910,1.451,1111122 
COMPS,ioos:station:USF.COMPS:SHP:1,2012-08-01T13:30:00Z,30.0600,-84.2910,1.451,1111122 
COMPS,ioos:station:USF.COMPS:SHP:1,2012-08-01T13:36:00Z,30.0600,-84.2910,1.451,1111122 
COMPS,ioos:station:USF.COMPS:SHP:1,2012-08-01T13:42:00Z,30.0600,-84.2910,1.45,1111122 
COMPS,ioos:station:USF.COMPS:SHP:1,2012-08-01T13:48:00Z,30.0600,-84.2910,1.45,1111122 
COMPS,ioos:station:USF.COMPS:SHP:1,2012-08-01T13:54:00Z,30.0600,-84.2910,1.45,1111122 
COMPS,ioos:station:USF.COMPS:SHP:1,2012-08-01T14:00:00Z,30.0600,-84.2910,1.449,1111122 
COMPS,ioos:station:USF.COMPS:SHP:1,2012-08-01T14:06:00Z,30.0600,-84.2910,1.449,1111122 
COMPS,ioos:station:USF.COMPS:SHP:1,2012-08-01T14:12:00Z,30.0600,-84.2910,1.449,1111122 
COMPS,ioos:station:USF.COMPS:SHP:1,2012-08-01T14:18:00Z,30.0600,-84.2910,1.448,1111122 
COMPS,ioos:station:USF.COMPS:SHP:1,2012-08-01T14:24:00Z,30.0600,-84.2910,1.448,1111122 
COMPS,ioos:station:USF.COMPS:SHP:1,2012-08-01T14:30:00Z,30.0600,-84.2910,1.447,1111122 
COMPS,ioos:station:USF.COMPS:SHP:1,2012-08-01T14:36:00Z,30.0600,-84.2910,1.447,1111122 
COMPS,ioos:station:USF.COMPS:SHP:1,2012-08-01T14:42:00Z,30.0600,-84.2910,1.408,1111122 
COMPS,ioos:station:USF.COMPS:SHP:1,2012-08-01T14:48:00Z,30.0600,-84.2910,1.378,1111122 
COMPS,ioos:station:USF.COMPS:SHP:1,2012-08-01T14:54:00Z,30.0600,-84.2910,1.378,1111122 
COMPS,ioos:station:USF.COMPS:SHP:1,2012-08-01T15:00:00Z,30.0600,-84.2910,1.378,1111122 
COMPS,ioos:station:USF.COMPS:SHP:1,2012-08-01T15:06:00Z,30.0600,-84.2910,1.379,1111122 
COMPS,ioos:station:USF.COMPS:SHP:1,2012-08-01T15:12:00Z,30.0600,-84.2910,1.379,1111122 
COMPS,ioos:station:USF.COMPS:SHP:1,2012-08-01T15:18:00Z,30.0600,-84.2910,1.379,1111122 
COMPS,ioos:station:USF.COMPS:SHP:1,2012-08-01T15:24:00Z,30.0600,-84.2910,1.38,1111122 
COMPS,ioos:station:USF.COMPS:SHP:1,2012-08-01T15:30:00Z,30.0600,-84.2910,1.38,1111122 
COMPS,ioos:station:USF.COMPS:SHP:1,2012-08-01T15:36:00Z,30.0600,-84.2910,1.38,1111122 
COMPS,ioos:station:USF.COMPS:SHP:1,2012-08-01T15:42:00Z,30.0600,-84.2910,1.381,1111122 
COMPS,ioos:station:USF.COMPS:SHP:1,2012-08-01T15:48:00Z,30.0600,-84.2910,1.381,1111122 
COMPS,ioos:station:USF.COMPS:SHP:1,2012-08-01T15:54:00Z,30.0600,-84.2910,1.381,1111122 
COMPS,ioos:station:USF.COMPS:SHP:1,2012-08-01T16:00:00Z,30.0600,-84.2910,1.381,1111122 
COMPS,ioos:station:USF.COMPS:SHP:1,2012-08-01T16:06:00Z,30.0600,-84.2910,1.381,1111122 
COMPS,ioos:station:USF.COMPS:SHP:1,2012-08-01T16:12:00Z,30.0600,-84.2910,1.381,1111122 
COMPS,ioos:station:USF.COMPS:SHP:1,2012-08-01T16:18:00Z,30.0600,-84.2910,1.38,1111122 
COMPS,ioos:station:USF.COMPS:SHP:1,2012-08-01T16:24:00Z,30.0600,-84.2910,1.381,1111122 
COMPS,ioos:station:USF.COMPS:SHP:1,2012-08-01T16:30:00Z,30.0600,-84.2910,1.38,1111122 
COMPS,ioos:station:USF.COMPS:SHP:1,2012-08-01T16:36:00Z,30.0600,-84.2910,1.379,1111122 
COMPS,ioos:station:USF.COMPS:SHP:1,2012-08-01T16:42:00Z,30.0600,-84.2910,1.378,1111122 
COMPS,ioos:station:USF.COMPS:SHP:1,2012-08-01T16:48:00Z,30.0600,-84.2910,1.377,1111122 
COMPS,ioos:station:USF.COMPS:SHP:1,2012-08-01T16:54:00Z,30.0600,-84.2910,1.377,1111122 
COMPS,ioos:station:USF.COMPS:SHP:1,2012-08-01T17:00:00Z,30.0600,-84.2910,1.377,1111122 
COMPS,ioos:station:USF.COMPS:SHP:1,2012-08-01T17:06:00Z,30.0600,-84.2910,1.377,1111122 
COMPS,ioos:station:USF.COMPS:SHP:1,2012-08-01T17:12:00Z,30.0600,-84.2910,1.378,1111122 
COMPS,ioos:station:USF.COMPS:SHP:1,2012-08-01T17:18:00Z,30.0600,-84.2910,1.377,1111122 
COMPS,ioos:station:USF.COMPS:SHP:1,2012-08-01T17:24:00Z,30.0600,-84.2910,1.378,1111122 
COMPS,ioos:station:USF.COMPS:SHP:1,2012-08-01T17:30:00Z,30.0600,-84.2910,1.378,1111122 
COMPS,ioos:station:USF.COMPS:SHP:1,2012-08-01T17:36:00Z,30.0600,-84.2910,1.378,1111122 
COMPS,ioos:station:USF.COMPS:SHP:1,2012-08-01T17:42:00Z,30.0600,-84.2910,1.378,1111122 
COMPS,ioos:station:USF.COMPS:SHP:1,2012-08-01T17:48:00Z,30.0600,-84.2910,1.377,1111122 
COMPS,ioos:station:USF.COMPS:SHP:1,2012-08-01T17:54:00Z,30.0600,-84.2910,1.378,1111122 
COMPS,ioos:station:USF.COMPS:SHP:1,2012-08-01T18:00:00Z,30.0600,-84.2910,1.378,1111122 
COMPS,ioos:station:USF.COMPS:SHP:1,2012-08-01T18:06:00Z,30.0600,-84.2910,1.379,1111122 
COMPS,ioos:station:USF.COMPS:SHP:1,2012-08-01T18:12:00Z,30.0600,-84.2910,1.379,1111122 
COMPS,ioos:station:USF.COMPS:SHP:1,2012-08-01T18:18:00Z,30.0600,-84.2910,1.379,1111122 
COMPS,ioos:station:USF.COMPS:SHP:1,2012-08-01T18:24:00Z,30.0600,-84.2910,1.38,1111122 
COMPS,ioos:station:USF.COMPS:SHP:1,2012-08-01T18:30:00Z,30.0600,-84.2910,1.38,1111122 
COMPS,ioos:station:USF.COMPS:SHP:1,2012-08-01T18:36:00Z,30.0600,-84.2910,1.381,1111122 
COMPS,ioos:station:USF.COMPS:SHP:1,2012-08-01T18:42:00Z,30.0600,-84.2910,1.381,1111122 
COMPS,ioos:station:USF.COMPS:SHP:1,2012-08-01T18:48:00Z,30.0600,-84.2910,1.382,1111122 
COMPS,ioos:station:USF.COMPS:SHP:1,2012-08-01T18:54:00Z,30.0600,-84.2910,1.382,1111122 
COMPS,ioos:station:USF.COMPS:SHP:1,2012-08-02T03:00:00Z,30.0600,-84.2910,1.452,1111122 
COMPS,ioos:station:USF.COMPS:SHP:1,2012-08-02T03:06:00Z,30.0600,-84.2910,1.452,1111122 
COMPS,ioos:station:USF.COMPS:SHP:1,2012-08-02T03:12:00Z,30.0600,-84.2910,1.452,1111122 
COMPS,ioos:station:USF.COMPS:SHP:1,2012-08-02T03:18:00Z,30.0600,-84.2910,1.452,1111122 
COMPS,ioos:station:USF.COMPS:SHP:1,2012-08-02T03:24:00Z,30.0600,-84.2910,1.452,1111122 
COMPS,ioos:station:USF.COMPS:SHP:1,2012-08-02T03:30:00Z,30.0600,-84.2910,1.453,1111122 
COMPS,ioos:station:USF.COMPS:SHP:1,2012-08-02T03:36:00Z,30.0600,-84.2910,1.452,1111122 
COMPS,ioos:station:USF.COMPS:SHP:1,2012-08-02T03:42:00Z,30.0600,-84.2910,1.452,1111122 
COMPS,ioos:station:USF.COMPS:SHP:1,2012-08-02T03:48:00Z,30.0600,-84.2910,1.452,1111122 
COMPS,ioos:station:USF.COMPS:SHP:1,2012-08-02T03:54:00Z,30.0600,-84.2910,1.452,1111122 
COMPS,ioos:station:USF.COMPS:SHP:1,2012-08-02T04:00:00Z,30.0600,-84.2910,1.453,1111122 
COMPS,ioos:station:USF.COMPS:SHP:1,2012-08-02T04:06:00Z,30.0600,-84.2910,1.453,1111122 
COMPS,ioos:station:USF.COMPS:SHP:1,2012-08-02T04:12:00Z,30.0600,-84.2910,1.453,1111122 
COMPS,ioos:station:USF.COMPS:SHP:1,2012-08-02T04:18:00Z,30.0600,-84.2910,1.453,1111122 
COMPS,ioos:station:USF.COMPS:SHP:1,2012-08-02T04:24:00Z,30.0600,-84.2910,1.453,1111122 
COMPS,ioos:station:USF.COMPS:SHP:1,2012-08-02T04:30:00Z,30.0600,-84.2910,1.453,1111122 
COMPS,ioos:station:USF.COMPS:SHP:1,2012-08-02T04:36:00Z,30.0600,-84.2910,1.453,1111122 
COMPS,ioos:station:USF.COMPS:SHP:1,2012-08-02T04:42:00Z,30.0600,-84.2910,1.453,1111122 
COMPS,ioos:station:USF.COMPS:SHP:1,2012-08-02T04:48:00Z,30.0600,-84.2910,1.453,1111122 
COMPS,ioos:station:USF.COMPS:SHP:1,2012-08-02T04:54:00Z,30.0600,-84.2910,1.453,1111122 
COMPS,ioos:station:USF.COMPS:SHP:1,2012-08-02T05:00:00Z,30.0600,-84.2910,1.453,1111122 
COMPS,ioos:station:USF.COMPS:SHP:1,2012-08-02T05:06:00Z,30.0600,-84.2910,1.453,1111122 
COMPS,ioos:station:USF.COMPS:SHP:1,2012-08-02T05:12:00Z,30.0600,-84.2910,1.453,1111122 
COMPS,ioos:station:USF.COMPS:SHP:1,2012-08-02T05:18:00Z,30.0600,-84.2910,1.453,1111122 
COMPS,ioos:station:USF.COMPS:SHP:1,2012-08-02T05:24:00Z,30.0600,-84.2910,1.453,1111122 
COMPS,ioos:station:USF.COMPS:SHP:1,2012-08-02T05:30:00Z,30.0600,-84.2910,1.453,1111122 
COMPS,ioos:station:USF.COMPS:SHP:1,2012-08-02T05:36:00Z,30.0600,-84.2910,1.453,1111122 
COMPS,ioos:station:USF.COMPS:SHP:1,2012-08-02T05:42:00Z,30.0600,-84.2910,1.453,1111122 
COMPS,ioos:station:USF.COMPS:SHP:1,2012-08-02T05:48:00Z,30.0600,-84.2910,1.453,1111122 
COMPS,ioos:station:USF.COMPS:SHP:1,2012-08-02T05:54:00Z,30.0600,-84.2910,1.453,1111122 
COMPS,ioos:station:USF.COMPS:SHP:1,2012-08-02T06:00:00Z,30.0600,-84.2910,1.453,1111122 
COMPS,ioos:station:USF.COMPS:SHP:1,2012-08-02T06:06:00Z,30.0600,-84.2910,1.453,1111122 
COMPS,ioos:station:USF.COMPS:SHP:1,2012-08-02T06:12:00Z,30.0600,-84.2910,1.453,1111122 
COMPS,ioos:station:USF.COMPS:SHP:1,2012-08-02T06:18:00Z,30.0600,-84.2910,1.453,1111122 
COMPS,ioos:station:USF.COMPS:SHP:1,2012-08-02T06:24:00Z,30.0600,-84.2910,1.453,1111122 
COMPS,ioos:station:USF.COMPS:SHP:1,2012-08-02T06:30:00Z,30.0600,-84.2910,1.453,1111122 
COMPS,ioos:station:USF.COMPS:SHP:1,2012-08-02T06:36:00Z,30.0600,-84.2910,1.453,1111122 
COMPS,ioos:station:USF.COMPS:SHP:1,2012-08-02T06:42:00Z,30.0600,-84.2910,1.453,1111122 
COMPS,ioos:station:USF.COMPS:SHP:1,2012-08-02T06:48:00Z,30.0600,-84.2910,1.452,1111122 
COMPS,ioos:station:USF.COMPS:SHP:1,2012-08-02T06:54:00Z,30.0600,-84.2910,1.452,1111122 
COMPS,ioos:station:USF.COMPS:SHP:1,2012-08-02T07:00:00Z,30.0600,-84.2910,1.452,1111122 
COMPS,ioos:station:USF.COMPS:SHP:1,2012-08-02T07:06:00Z,30.0600,-84.2910,1.452,1111122 
COMPS,ioos:station:USF.COMPS:SHP:1,2012-08-02T07:12:00Z,30.0600,-84.2910,1.452,1111122 
COMPS,ioos:station:USF.COMPS:SHP:1,2012-08-02T07:18:00Z,30.0600,-84.2910,1.452,1111122 
COMPS,ioos:station:USF.COMPS:SHP:1,2012-08-02T07:24:00Z,30.0600,-84.2910,1.452,1111122 
COMPS,ioos:station:USF.COMPS:SHP:1,2012-08-02T07:30:00Z,30.0600,-84.2910,1.452,1111122 
COMPS,ioos:station:USF.COMPS:SHP:1,2012-08-02T07:36:00Z,30.0600,-84.2910,1.452,1111122 
COMPS,ioos:station:USF.COMPS:SHP:1,2012-08-02T07:42:00Z,30.0600,-84.2910,1.452,1111122 
COMPS,ioos:station:USF.COMPS:SHP:1,2012-08-02T07:48:00Z,30.0600,-84.2910,1.452,1111122 
COMPS,ioos:station:USF.COMPS:SHP:1,2012-08-02T07:54:00Z,30.0600,-84.2910,1.452,1111122 
COMPS,ioos:station:USF.COMPS:SHP:1,2012-08-02T08:00:00Z,30.0600,-84.2910,1.452,1111122 
COMPS,ioos:station:USF.COMPS:SHP:1,2012-08-02T08:06:00Z,30.0600,-84.2910,1.452,1111122 
COMPS,ioos:station:USF.COMPS:SHP:1,2012-08-02T08:12:00Z,30.0600,-84.2910,1.452,1111122 
COMPS,ioos:station:USF.COMPS:SHP:1,2012-08-02T08:18:00Z,30.0600,-84.2910,1.452,1111122 
COMPS,ioos:station:USF.COMPS:SHP:1,2012-08-02T08:24:00Z,30.0600,-84.2910,1.452,1111122 
COMPS,ioos:station:USF.COMPS:SHP:1,2012-08-02T08:30:00Z,30.0600,-84.2910,1.452,1111122 
COMPS,ioos:station:USF.COMPS:SHP:1,2012-08-02T08:36:00Z,30.0600,-84.2910,1.452,1111122 
COMPS,ioos:station:USF.COMPS:SHP:1,2012-08-02T08:42:00Z,30.0600,-84.2910,1.452,1111122 
COMPS,ioos:station:USF.COMPS:SHP:1,2012-08-02T08:48:00Z,30.0600,-84.2910,1.452,1111122 
COMPS,ioos:station:USF.COMPS:SHP:1,2012-08-02T08:54:00Z,30.0600,-84.2910,1.452,1111122 
COMPS,ioos:station:USF.COMPS:SHP:1,2012-08-02T09:00:00Z,30.0600,-84.2910,1.452,1111122 
COMPS,ioos:station:USF.COMPS:SHP:1,2012-08-02T09:06:00Z,30.0600,-84.2910,1.452,1111122 
COMPS,ioos:station:USF.COMPS:SHP:1,2012-08-02T09:12:00Z,30.0600,-84.2910,1.452,1111122 
COMPS,ioos:station:USF.COMPS:SHP:1,2012-08-02T09:18:00Z,30.0600,-84.2910,1.452,1111122 
COMPS,ioos:station:USF.COMPS:SHP:1,2012-08-02T09:24:00Z,30.0600,-84.2910,1.452,1111122 
COMPS,ioos:station:USF.COMPS:SHP:1,2012-08-02T09:30:00Z,30.0600,-84.2910,1.452,1111122 
COMPS,ioos:station:USF.COMPS:SHP:1,2012-08-02T09:36:00Z,30.0600,-84.2910,1.452,1111122 
COMPS,ioos:station:USF.COMPS:SHP:1,2012-08-02T09:42:00Z,30.0600,-84.2910,1.452,1111122 
COMPS,ioos:station:USF.COMPS:SHP:1,2012-08-02T09:48:00Z,30.0600,-84.2910,1.452,1111122 
COMPS,ioos:station:USF.COMPS:SHP:1,2012-08-02T09:54:00Z,30.0600,-84.2910,1.452,1111122 
COMPS,ioos:station:USF.COMPS:SHP:1,2012-08-02T10:00:00Z,30.0600,-84.2910,1.452,1111122 
COMPS,ioos:station:USF.COMPS:SHP:1,2012-08-02T10:06:00Z,30.0600,-84.2910,1.452,1111122 
COMPS,ioos:station:USF.COMPS:SHP:1,2012-08-02T10:12:00Z,30.0600,-84.2910,1.452,1111122 
COMPS,ioos:station:USF.COMPS:SHP:1,2012-08-02T10:18:00Z,30.0600,-84.2910,1.452,1111122 
COMPS,ioos:station:USF.COMPS:SHP:1,2012-08-02T10:24:00Z,30.0600,-84.2910,1.452,1111122 
COMPS,ioos:station:USF.COMPS:SHP:1,2012-08-02T10:30:00Z,30.0600,-84.2910,1.452,1111122 
COMPS,ioos:station:USF.COMPS:SHP:1,2012-08-02T10:36:00Z,30.0600,-84.2910,1.452,1111122 
COMPS,ioos:station:USF.COMPS:SHP:1,2012-08-02T10:42:00Z,30.0600,-84.2910,1.452,1111122 
COMPS,ioos:station:USF.COMPS:SHP:1,2012-08-02T10:48:00Z,30.0600,-84.2910,1.452,1111122 
COMPS,ioos:station:USF.COMPS:SHP:1,2012-08-02T10:54:00Z,30.0600,-84.2910,1.453,1111122 
COMPS,ioos:station:USF.COMPS:SHP:1,2012-08-02T11:00:00Z,30.0600,-84.2910,1.453,1111122 
COMPS,ioos:station:USF.COMPS:SHP:1,2012-08-02T11:06:00Z,30.0600,-84.2910,1.453,1111122 
COMPS,ioos:station:USF.COMPS:SHP:1,2012-08-02T11:12:00Z,30.0600,-84.2910,1.453,1111122 
COMPS,ioos:station:USF.COMPS:SHP:1,2012-08-02T11:18:00Z,30.0600,-84.2910,1.453,1111122 
COMPS,ioos:station:USF.COMPS:SHP:1,2012-08-02T11:24:00Z,30.0600,-84.2910,1.453,1111122 
COMPS,ioos:station:USF.COMPS:SHP:1,2012-08-02T11:30:00Z,30.0600,-84.2910,1.453,1111122 
COMPS,ioos:station:USF.COMPS:SHP:1,2012-08-02T11:36:00Z,30.0600,-84.2910,1.453,1111122 
COMPS,ioos:station:USF.COMPS:SHP:1,2012-08-02T11:42:00Z,30.0600,-84.2910,1.452,1111122 
COMPS,ioos:station:USF.COMPS:SHP:1,2012-08-02T11:48:00Z,30.0600,-84.2910,1.452,1111122 
COMPS,ioos:station:USF.COMPS:SHP:1,2012-08-02T11:54:00Z,30.0600,-84.2910,1.452,1111122 
COMPS,ioos:station:USF.COMPS:SHP:1,2012-08-02T12:00:00Z,30.0600,-84.2910,1.452,1111122 
COMPS,ioos:station:USF.COMPS:SHP:1,2012-08-02T12:06:00Z,30.0600,-84.2910,1.452,1111122 
COMPS,ioos:station:USF.COMPS:SHP:1,2012-08-02T12:12:00Z,30.0600,-84.2910,1.452,1111122 
COMPS,ioos:station:USF.COMPS:SHP:1,2012-08-02T12:18:00Z,30.0600,-84.2910,1.452,1111122 
COMPS,ioos:station:USF.COMPS:SHP:1,2012-08-02T12:24:00Z,30.0600,-84.2910,1.452,1111122 
COMPS,ioos:station:USF.COMPS:SHP:1,2012-08-02T12:30:00Z,30.0600,-84.2910,1.451,1111122 
COMPS,ioos:station:USF.COMPS:SHP:1,2012-08-02T12:36:00Z,30.0600,-84.2910,1.451,1111122 
COMPS,ioos:station:USF.COMPS:SHP:1,2012-08-02T12:42:00Z,30.0600,-84.2910,1.451,1111122 
COMPS,ioos:station:USF.COMPS:SHP:1,2012-08-02T12:48:00Z,30.0600,-84.2910,1.45,1111122 
COMPS,ioos:station:USF.COMPS:SHP:1,2012-08-02T12:54:00Z,30.0600,-84.2910,1.45,1111122 
COMPS,ioos:station:USF.COMPS:SHP:1,2012-08-02T13:00:00Z,30.0600,-84.2910,1.449,1111122 
COMPS,ioos:station:USF.COMPS:SHP:1,2012-08-02T13:06:00Z,30.0600,-84.2910,1.449,1111122 
COMPS,ioos:station:USF.COMPS:SHP:1,2012-08-02T13:12:00Z,30.0600,-84.2910,1.448,1111122 
COMPS,ioos:station:USF.COMPS:SHP:1,2012-08-02T13:18:00Z,30.0600,-84.2910,1.447,1111122 
COMPS,ioos:station:USF.COMPS:SHP:1,2012-08-02T13:24:00Z,30.0600,-84.2910,1.446,1111122 
COMPS,ioos:station:USF.COMPS:SHP:1,2012-08-02T13:30:00Z,30.0600,-84.2910,1.395,1111122 
COMPS,ioos:station:USF.COMPS:SHP:1,2012-08-02T13:36:00Z,30.0600,-84.2910,1.402,1111122 
COMPS,ioos:station:USF.COMPS:SHP:1,2012-08-02T13:42:00Z,30.0600,-84.2910,1.376,1111122 
COMPS,ioos:station:USF.COMPS:SHP:1,2012-08-02T13:48:00Z,30.0600,-84.2910,1.376,1111122 
COMPS,ioos:station:USF.COMPS:SHP:1,2012-08-02T13:54:00Z,30.0600,-84.2910,1.376,1111122 
COMPS,ioos:station:USF.COMPS:SHP:1,2012-08-02T14:00:00Z,30.0600,-84.2910,1.375,1111122 